RYR6MQ LIME-LGIR

Flight info

Callsign RYR6MQ
Flight time 2h 20m
Altitude 37000
Route LOGDI DCT EKDIR DCT LOMED DCT LATAN DCT TRL UM601 MIL UL617 XAVIS
Aircraft B738/M-SDE3FGILRWY/SB1

Departure

Time 2026-04-30 07:22
Airport Il Caravaggio International Airport (LIME)

Arrival

Time 2026-04-30 09:42
Airport Heraklion International Nikos Kazantzakis Airport (LGIR)
Time Latitude Longitude Altitude Speed Heading
2026-04-30 06:55 45.66650 9.69925 783 ft 0 kts 193°
2026-04-30 07:15 45.66655 9.69927 784 ft 2 kts 192°
2026-04-30 07:15 45.66671 9.69932 783 ft 2 kts 192°
2026-04-30 07:15 45.66687 9.69937 783 ft 2 kts 191°
2026-04-30 07:16 45.66704 9.69942 783 ft 2 kts 189°
2026-04-30 07:16 45.66720 9.69945 783 ft 2 kts 186°
2026-04-30 07:16 45.66736 9.69946 783 ft 2 kts 175°
2026-04-30 07:16 45.66752 9.69939 783 ft 2 kts 126°
2026-04-30 07:17 45.66756 9.69927 783 ft 1 kts 104°
2026-04-30 07:17 45.66757 9.69926 783 ft 0 kts 104°
2026-04-30 07:18 45.66756 9.69931 783 ft 2 kts 104°
2026-04-30 07:18 45.66746 9.69985 783 ft 9 kts 104°
2026-04-30 07:18 45.66726 9.70097 782 ft 14 kts 104°
2026-04-30 07:19 45.66699 9.70245 780 ft 16 kts 104°
2026-04-30 07:19 45.66669 9.70411 779 ft 18 kts 104°
2026-04-30 07:19 45.66634 9.70601 777 ft 21 kts 105°
2026-04-30 07:19 45.66594 9.70812 776 ft 23 kts 105°
2026-04-30 07:20 45.66549 9.71041 774 ft 25 kts 105°
2026-04-30 07:20 45.66491 9.71284 772 ft 26 kts 101°
2026-04-30 07:20 45.66445 9.71529 770 ft 25 kts 101°
2026-04-30 07:20 45.66467 9.71762 767 ft 23 kts 75°
2026-04-30 07:21 45.66539 9.71908 765 ft 12 kts 351°
2026-04-30 07:21 45.66573 9.71841 767 ft 9 kts 276°
2026-04-30 07:21 45.66628 9.71541 770 ft 67 kts 285°
2026-04-30 07:21 45.66809 9.70555 777 ft 135 kts 284°
2026-04-30 07:22 45.67325 9.67395 1743 ft 176 kts 265°
2026-04-30 07:22 45.66857 9.65710 2272 ft 185 kts 217°
2026-04-30 07:22 45.65861 9.64576 3189 ft 192 kts 215°
2026-04-30 07:23 45.64836 9.63267 4021 ft 199 kts 218°
2026-04-30 07:23 45.63813 9.61883 4755 ft 211 kts 219°
2026-04-30 07:23 45.62704 9.60344 5243 ft 230 kts 220°
2026-04-30 07:23 45.61568 9.58742 6003 ft 231 kts 221°
2026-04-30 07:24 45.60394 9.57082 6670 ft 242 kts 223°
2026-04-30 07:24 45.59188 9.55366 7421 ft 247 kts 224°
2026-04-30 07:24 45.57964 9.53621 8205 ft 251 kts 225°
2026-04-30 07:24 45.56599 9.52027 8929 ft 258 kts 205°
2026-04-30 07:25 45.54841 9.51533 9652 ft 265 kts 173°
2026-04-30 07:25 45.53082 9.52308 10411 ft 266 kts 156°
2026-04-30 07:25 45.51365 9.53358 11100 ft 272 kts 155°
2026-04-30 07:25 45.49624 9.54441 11856 ft 275 kts 155°
2026-04-30 07:26 45.47850 9.55537 12550 ft 280 kts 155°
2026-04-30 07:26 45.46053 9.56638 13318 ft 282 kts 155°
2026-04-30 07:26 45.44230 9.57746 14035 ft 287 kts 156°
2026-04-30 07:26 45.42378 9.58866 14706 ft 290 kts 156°
2026-04-30 07:27 45.40512 9.59989 15407 ft 293 kts 156°
2026-04-30 07:27 45.38629 9.61120 16094 ft 295 kts 156°
2026-04-30 07:27 45.36724 9.62275 16735 ft 299 kts 153°
2026-04-30 07:27 45.34860 9.63731 17066 ft 317 kts 146°
2026-04-30 07:28 45.32949 9.65507 17256 ft 338 kts 144°
2026-04-30 07:28 45.30941 9.67443 17423 ft 359 kts 144°
2026-04-30 07:28 45.28810 9.69492 17653 ft 378 kts 144°
2026-04-30 07:28 45.26630 9.71559 18195 ft 385 kts 145°
2026-04-30 07:29 45.24383 9.73662 18893 ft 387 kts 145°
2026-04-30 07:29 45.22182 9.75704 19501 ft 391 kts 146°
2026-04-30 07:29 45.19936 9.77777 20054 ft 395 kts 146°
2026-04-30 07:29 45.17612 9.79915 20648 ft 398 kts 146°
2026-04-30 07:30 45.12918 9.84226 21796 ft 406 kts 146°
2026-04-30 07:30 45.10537 9.86410 22333 ft 410 kts 146°
2026-04-30 07:30 45.08128 9.88617 22875 ft 414 kts 146°
2026-04-30 07:31 45.05698 9.90842 23414 ft 418 kts 147°
2026-04-30 07:31 45.03247 9.93084 23916 ft 422 kts 147°
2026-04-30 07:31 45.00767 9.95350 24339 ft 426 kts 147°
2026-04-30 07:31 44.98243 9.97582 24753 ft 430 kts 149°
2026-04-30 07:32 44.95652 9.99729 25179 ft 434 kts 150°
2026-04-30 07:32 44.93026 10.01854 25591 ft 437 kts 151°
2026-04-30 07:32 44.90376 10.03992 26024 ft 441 kts 151°
2026-04-30 07:32 44.87708 10.06158 26426 ft 444 kts 151°
2026-04-30 07:33 44.85020 10.08354 26812 ft 448 kts 151°
2026-04-30 07:33 44.82316 10.10571 27200 ft 452 kts 152°
2026-04-30 07:33 44.79590 10.12809 27575 ft 455 kts 152°
2026-04-30 07:33 44.76843 10.15062 27941 ft 459 kts 152°
2026-04-30 07:34 44.74071 10.17332 28290 ft 463 kts 152°
2026-04-30 07:34 44.71277 10.19620 28654 ft 466 kts 152°
2026-04-30 07:34 44.68546 10.22102 28996 ft 471 kts 148°
2026-04-30 07:34 44.65872 10.24807 29339 ft 475 kts 146°
2026-04-30 07:35 44.63262 10.27556 29645 ft 479 kts 146°
2026-04-30 07:35 44.60592 10.30382 29962 ft 483 kts 146°
2026-04-30 07:35 44.57910 10.33192 30261 ft 485 kts 146°
2026-04-30 07:35 44.55183 10.36011 30535 ft 488 kts 147°
2026-04-30 07:36 44.52435 10.38820 30802 ft 491 kts 147°
2026-04-30 07:36 44.49665 10.41632 31078 ft 493 kts 147°
2026-04-30 07:36 44.46884 10.44445 31359 ft 495 kts 147°
2026-04-30 07:36 44.44088 10.47269 31649 ft 496 kts 148°
2026-04-30 07:37 44.41282 10.50101 31950 ft 497 kts 148°
2026-04-30 07:37 44.38478 10.52929 32315 ft 497 kts 147°
2026-04-30 07:37 44.35679 10.55752 32719 ft 495 kts 147°
2026-04-30 07:37 44.32890 10.58561 33110 ft 494 kts 148°
2026-04-30 07:38 44.30104 10.61364 33444 ft 493 kts 148°
2026-04-30 07:38 44.27318 10.64163 33777 ft 494 kts 148°
2026-04-30 07:38 44.24539 10.66953 34145 ft 492 kts 147°
2026-04-30 07:38 44.21772 10.69761 34488 ft 491 kts 144°
2026-04-30 07:39 44.19211 10.72913 34796 ft 493 kts 135°
2026-04-30 07:39 44.16988 10.76474 35109 ft 492 kts 131°
2026-04-30 07:39 44.15521 10.78957 35310 ft 492 kts 130°
2026-04-30 07:39 44.12656 10.83844 35658 ft 492 kts 131°
2026-04-30 07:40 44.10479 10.87509 35925 ft 491 kts 131°
2026-04-30 07:40 44.08287 10.91143 36203 ft 490 kts 131°
2026-04-30 07:40 44.06802 10.93584 36386 ft 489 kts 131°
2026-04-30 07:40 44.04607 10.97178 36700 ft 487 kts 131°
2026-04-30 07:41 44.02429 11.00776 36980 ft 486 kts 129°
2026-04-30 07:41 44.00375 11.04515 37206 ft 487 kts 127°
2026-04-30 07:41 43.98381 11.08338 37179 ft 490 kts 126°
2026-04-30 07:42 43.94462 11.16047 37201 ft 487 kts 126°
2026-04-30 07:42 43.90553 11.23691 37185 ft 485 kts 126°
2026-04-30 07:43 43.86656 11.31209 37181 ft 482 kts 127°
2026-04-30 07:43 43.82735 11.38715 37174 ft 480 kts 127°
2026-04-30 07:44 43.78818 11.46188 37180 ft 479 kts 127°
2026-04-30 07:44 43.74895 11.53656 37197 ft 480 kts 127°
2026-04-30 07:45 43.71185 11.60704 37194 ft 483 kts 127°
2026-04-30 07:45 43.67271 11.68119 37207 ft 488 kts 127°
2026-04-30 07:46 43.63254 11.75712 37206 ft 491 kts 127°
2026-04-30 07:46 43.59213 11.83333 37198 ft 494 kts 127°
2026-04-30 07:47 43.55164 11.90949 37186 ft 488 kts 127°
2026-04-30 07:47 43.51178 11.98428 37200 ft 483 kts 128°
2026-04-30 07:48 43.47197 12.05876 37193 ft 483 kts 127°
2026-04-30 07:48 43.43207 12.13320 37208 ft 484 kts 128°
2026-04-30 07:49 43.39205 12.20769 37204 ft 485 kts 128°
2026-04-30 07:49 43.35192 12.28221 37197 ft 486 kts 128°
2026-04-30 07:50 43.31163 12.35682 37197 ft 487 kts 128°
2026-04-30 07:50 43.27146 12.43104 37188 ft 488 kts 128°
2026-04-30 07:51 43.23090 12.50579 37183 ft 488 kts 128°
2026-04-30 07:51 43.19027 12.58048 37183 ft 488 kts 128°
2026-04-30 07:52 43.14964 12.65497 37189 ft 488 kts 128°
2026-04-30 07:52 43.10895 12.72938 37186 ft 488 kts 128°
2026-04-30 07:53 43.06823 12.80366 37192 ft 488 kts 128°
2026-04-30 07:53 43.02750 12.87779 37178 ft 487 kts 128°
2026-04-30 07:54 42.98678 12.95171 37191 ft 487 kts 128°
2026-04-30 07:54 42.94603 13.02549 37186 ft 486 kts 129°
2026-04-30 07:55 42.90536 13.09896 37200 ft 485 kts 129°
2026-04-30 07:55 42.86513 13.17144 37212 ft 483 kts 129°
2026-04-30 07:56 42.82458 13.24433 37217 ft 482 kts 129°
2026-04-30 07:56 42.78402 13.31704 37205 ft 482 kts 129°
2026-04-30 07:57 42.74345 13.38961 37222 ft 481 kts 129°
2026-04-30 07:57 42.70291 13.46195 37219 ft 481 kts 129°
2026-04-30 07:58 42.66229 13.53424 37222 ft 480 kts 129°
2026-04-30 07:58 42.62171 13.60630 37223 ft 480 kts 129°
2026-04-30 07:59 42.58109 13.67824 37229 ft 480 kts 129°
2026-04-30 07:59 42.54073 13.74957 37226 ft 480 kts 129°
2026-04-30 08:00 42.47967 13.85714 37221 ft 480 kts 129°
2026-04-30 08:00 42.43894 13.92868 37216 ft 480 kts 129°
2026-04-30 08:01 42.39819 14.00009 37207 ft 480 kts 129°
2026-04-30 08:01 42.35729 14.07159 37218 ft 480 kts 129°
2026-04-30 08:02 42.29581 14.17875 37210 ft 481 kts 129°
2026-04-30 08:03 42.21359 14.32145 37208 ft 482 kts 130°
2026-04-30 08:04 42.17241 14.39268 37197 ft 481 kts 130°
2026-04-30 08:04 42.13123 14.46374 37200 ft 481 kts 130°
2026-04-30 08:05 42.09000 14.53470 37180 ft 481 kts 130°
2026-04-30 08:05 42.04876 14.60552 37183 ft 480 kts 130°
2026-04-30 08:06 42.00760 14.67604 37169 ft 479 kts 130°
2026-04-30 08:06 41.96648 14.74633 37171 ft 478 kts 130°
2026-04-30 08:07 41.92538 14.81643 37184 ft 478 kts 130°
2026-04-30 08:07 41.88412 14.88661 37169 ft 479 kts 130°
2026-04-30 08:08 41.84286 14.95664 37148 ft 479 kts 130°
2026-04-30 08:08 41.80160 15.02651 37152 ft 477 kts 130°
2026-04-30 08:09 41.76065 15.09572 37149 ft 476 kts 130°
2026-04-30 08:09 41.71944 15.16517 37135 ft 477 kts 130°
2026-04-30 08:10 41.67823 15.23448 37142 ft 476 kts 130°
2026-04-30 08:10 41.63702 15.30363 37128 ft 475 kts 130°
2026-04-30 08:11 41.59584 15.37258 37131 ft 474 kts 130°
2026-04-30 08:11 41.55469 15.44130 37131 ft 474 kts 130°
2026-04-30 08:12 41.51353 15.50990 37143 ft 473 kts 130°
2026-04-30 08:12 41.47236 15.57836 37133 ft 473 kts 130°
2026-04-30 08:13 41.43114 15.64674 37134 ft 473 kts 131°
2026-04-30 08:13 41.38987 15.71506 37127 ft 473 kts 131°
2026-04-30 08:14 41.34861 15.78320 37134 ft 473 kts 131°
2026-04-30 08:14 41.30724 15.85137 37121 ft 473 kts 131°
2026-04-30 08:15 41.26588 15.91938 37113 ft 473 kts 131°
2026-04-30 08:15 41.22439 15.98743 37113 ft 474 kts 131°
2026-04-30 08:16 41.18286 16.05543 37121 ft 474 kts 131°
2026-04-30 08:16 41.14127 16.12334 37106 ft 474 kts 131°
2026-04-30 08:17 41.09962 16.19122 37100 ft 474 kts 131°
2026-04-30 08:17 41.05800 16.25889 37097 ft 474 kts 131°
2026-04-30 08:18 41.01666 16.32597 37105 ft 473 kts 131°
2026-04-30 08:18 40.97478 16.39376 37093 ft 472 kts 131°
2026-04-30 08:19 40.93334 16.46070 37090 ft 475 kts 131°
2026-04-30 08:19 40.89136 16.52835 37088 ft 476 kts 131°
2026-04-30 08:20 40.84941 16.59583 37084 ft 474 kts 131°
2026-04-30 08:20 40.80757 16.66296 37079 ft 473 kts 131°
2026-04-30 08:21 40.76587 16.72974 37092 ft 470 kts 131°
2026-04-30 08:21 40.72431 16.79613 37093 ft 468 kts 131°
2026-04-30 08:22 40.68289 16.86217 37101 ft 466 kts 131°
2026-04-30 08:22 40.64157 16.92790 37100 ft 465 kts 132°
2026-04-30 08:23 40.60029 16.99342 37094 ft 465 kts 132°
2026-04-30 08:23 40.55892 17.05894 37092 ft 465 kts 132°
2026-04-30 08:24 40.51750 17.12442 37084 ft 467 kts 132°
2026-04-30 08:24 40.47592 17.19000 37081 ft 467 kts 132°
2026-04-30 08:25 40.43424 17.25560 37076 ft 468 kts 132°
2026-04-30 08:25 40.39247 17.32120 37078 ft 469 kts 132°
2026-04-30 08:26 40.35089 17.38636 37079 ft 469 kts 132°
2026-04-30 08:26 40.30894 17.45197 37082 ft 470 kts 132°
2026-04-30 08:27 40.26685 17.51767 37080 ft 472 kts 132°
2026-04-30 08:27 40.22465 17.58338 37077 ft 472 kts 132°
2026-04-30 08:28 40.18928 17.63837 37081 ft 471 kts 132°
2026-04-30 08:28 40.14834 17.70187 37080 ft 470 kts 132°
2026-04-30 08:29 40.10629 17.76698 37080 ft 467 kts 132°
2026-04-30 08:29 40.06476 17.83115 37085 ft 465 kts 132°
2026-04-30 08:30 40.02288 17.89569 37094 ft 467 kts 133°
2026-04-30 08:30 39.98084 17.96036 37088 ft 468 kts 133°
2026-04-30 08:31 39.93867 18.02510 37088 ft 469 kts 133°
2026-04-30 08:31 39.89639 18.08988 37087 ft 470 kts 133°
2026-04-30 08:32 39.85405 18.15461 37088 ft 469 kts 133°
2026-04-30 08:32 39.81171 18.21921 37086 ft 469 kts 133°
2026-04-30 08:33 39.76937 18.28366 37083 ft 468 kts 133°
2026-04-30 08:33 39.72711 18.34788 37084 ft 467 kts 133°
2026-04-30 08:34 39.68487 18.41192 37080 ft 466 kts 133°
2026-04-30 08:34 39.64266 18.47579 37078 ft 466 kts 133°
2026-04-30 08:35 39.60049 18.53947 37082 ft 465 kts 133°
2026-04-30 08:35 39.55830 18.60305 37079 ft 465 kts 133°
2026-04-30 08:36 39.51611 18.66650 37077 ft 465 kts 133°
2026-04-30 08:36 39.47386 18.72991 37078 ft 465 kts 133°
2026-04-30 08:37 39.43154 18.79330 37080 ft 466 kts 133°
2026-04-30 08:37 39.38913 18.85671 37078 ft 466 kts 133°
2026-04-30 08:38 39.34660 18.92017 37082 ft 467 kts 133°
2026-04-30 08:38 39.30426 18.98323 37084 ft 468 kts 134°
2026-04-30 08:39 39.26426 19.04994 37085 ft 471 kts 127°
2026-04-30 08:39 39.22723 19.11986 37079 ft 472 kts 126°
2026-04-30 08:40 39.19027 19.18998 37079 ft 473 kts 127°
2026-04-30 08:40 39.15288 19.25977 37079 ft 473 kts 127°
2026-04-30 08:41 39.11520 19.32940 37080 ft 474 kts 127°
2026-04-30 08:41 39.07741 19.39892 37077 ft 474 kts 127°
2026-04-30 08:42 39.03961 19.46833 37082 ft 474 kts 127°
2026-04-30 08:42 39.00177 19.53770 37084 ft 474 kts 127°
2026-04-30 08:43 38.96395 19.60689 37085 ft 473 kts 127°
2026-04-30 08:43 38.92606 19.67607 37082 ft 473 kts 128°
2026-04-30 08:44 38.88817 19.74509 37083 ft 473 kts 128°
2026-04-30 08:44 38.85027 19.81399 37084 ft 473 kts 128°
2026-04-30 08:45 38.81231 19.88284 37083 ft 472 kts 128°
2026-04-30 08:45 38.77435 19.95154 37081 ft 472 kts 128°
2026-04-30 08:46 38.73636 20.02016 37089 ft 472 kts 128°
2026-04-30 08:46 38.69832 20.08873 37086 ft 472 kts 128°
2026-04-30 08:47 38.66025 20.15720 37089 ft 472 kts 128°
2026-04-30 08:47 38.62211 20.22566 37088 ft 473 kts 128°
2026-04-30 08:48 38.58391 20.29407 37085 ft 473 kts 128°
2026-04-30 08:48 38.54564 20.36248 37084 ft 473 kts 128°
2026-04-30 08:49 38.50757 20.43036 37086 ft 474 kts 128°
2026-04-30 08:49 38.46916 20.49872 37084 ft 474 kts 128°
2026-04-30 08:50 38.43070 20.56704 37108 ft 474 kts 128°
2026-04-30 08:50 38.39213 20.63541 37102 ft 475 kts 128°
2026-04-30 08:51 38.35350 20.70372 37105 ft 476 kts 128°
2026-04-30 08:51 38.31476 20.77210 37088 ft 476 kts 129°
2026-04-30 08:52 38.27599 20.84038 37083 ft 476 kts 129°
2026-04-30 08:52 38.23718 20.90859 37084 ft 476 kts 129°
2026-04-30 08:53 38.19833 20.97674 37081 ft 476 kts 129°
2026-04-30 08:53 38.15945 21.04478 37088 ft 476 kts 129°
2026-04-30 08:54 38.12053 21.11276 37084 ft 476 kts 129°
2026-04-30 08:54 38.08158 21.18066 37079 ft 476 kts 129°
2026-04-30 08:55 38.04262 21.24843 37076 ft 475 kts 129°
2026-04-30 08:55 38.00360 21.31616 37076 ft 475 kts 129°
2026-04-30 08:56 37.96453 21.38384 37074 ft 476 kts 129°
2026-04-30 08:56 37.92540 21.45149 37079 ft 476 kts 129°
2026-04-30 08:57 37.88619 21.51913 37080 ft 476 kts 129°
2026-04-30 08:57 37.84719 21.58627 37078 ft 477 kts 129°
2026-04-30 08:58 37.80789 21.65380 37080 ft 477 kts 129°
2026-04-30 08:58 37.76854 21.72127 37083 ft 477 kts 129°
2026-04-30 08:59 37.72916 21.78866 37065 ft 476 kts 129°
2026-04-30 08:59 37.68984 21.85581 37067 ft 475 kts 129°
2026-04-30 09:00 37.65050 21.92286 37075 ft 475 kts 129°
2026-04-30 09:00 37.61115 21.98979 37077 ft 475 kts 129°
2026-04-30 09:01 37.57180 22.05659 37076 ft 474 kts 130°
2026-04-30 09:01 37.53249 22.12319 37073 ft 474 kts 130°
2026-04-30 09:02 37.47343 22.22301 37067 ft 474 kts 130°
2026-04-30 09:02 37.43398 22.28952 37067 ft 474 kts 130°
2026-04-30 09:03 37.39790 22.35909 37053 ft 478 kts 116°
2026-04-30 09:03 37.37435 22.43740 37070 ft 479 kts 110°
2026-04-30 09:04 37.35229 22.51654 37062 ft 480 kts 111°
2026-04-30 09:04 37.32975 22.59549 37076 ft 480 kts 111°
2026-04-30 09:05 37.30677 22.67436 37064 ft 482 kts 112°
2026-04-30 09:05 37.28354 22.75347 37049 ft 483 kts 111°
2026-04-30 09:06 37.26026 22.83264 37052 ft 483 kts 111°
2026-04-30 09:06 37.23696 22.91171 37059 ft 483 kts 111°
2026-04-30 09:07 37.21363 22.99069 37063 ft 482 kts 112°
2026-04-30 09:07 37.19025 23.06956 37061 ft 482 kts 112°
2026-04-30 09:08 37.16685 23.14832 37062 ft 482 kts 112°
2026-04-30 09:08 37.14341 23.22702 37061 ft 482 kts 112°
2026-04-30 09:09 37.11989 23.30569 37055 ft 482 kts 112°
2026-04-30 09:09 37.09626 23.38414 37061 ft 481 kts 112°
2026-04-30 09:10 37.07256 23.46255 37057 ft 481 kts 112°
2026-04-30 09:10 37.04897 23.54041 37066 ft 481 kts 112°
2026-04-30 09:11 37.02520 23.61873 37057 ft 481 kts 112°
2026-04-30 09:11 37.00122 23.69750 37066 ft 481 kts 112°
2026-04-30 09:12 36.97751 23.77517 37062 ft 481 kts 112°
2026-04-30 09:12 36.95355 23.85345 36870 ft 484 kts 112°
2026-04-30 09:13 36.94152 23.89267 36521 ft 480 kts 112°
2026-04-30 09:13 36.92964 23.93139 36140 ft 475 kts 112°
2026-04-30 09:13 36.91785 23.96973 35760 ft 471 kts 112°
2026-04-30 09:13 36.90613 24.00780 35386 ft 467 kts 112°
2026-04-30 09:14 36.89829 24.03331 35132 ft 464 kts 112°
2026-04-30 09:14 36.88675 24.07084 34743 ft 461 kts 112°
2026-04-30 09:14 36.87529 24.10812 34374 ft 458 kts 112°
2026-04-30 09:14 36.86391 24.14511 33961 ft 455 kts 112°
2026-04-30 09:15 36.85259 24.18186 33524 ft 452 kts 112°
2026-04-30 09:15 36.84130 24.21842 33118 ft 449 kts 112°
2026-04-30 09:15 36.83012 24.25461 32725 ft 445 kts 112°
2026-04-30 09:15 36.81902 24.29051 32352 ft 442 kts 112°
2026-04-30 09:16 36.80799 24.32611 31966 ft 438 kts 112°
2026-04-30 09:16 36.79702 24.36146 31603 ft 435 kts 112°
2026-04-30 09:16 36.78614 24.39652 31232 ft 432 kts 112°
2026-04-30 09:16 36.77532 24.43132 30868 ft 429 kts 112°
2026-04-30 09:17 36.76457 24.46586 30510 ft 426 kts 112°
2026-04-30 09:17 36.75184 24.49893 30135 ft 421 kts 123°
2026-04-30 09:17 36.73499 24.52848 29803 ft 415 kts 132°
2026-04-30 09:17 36.71547 24.55363 29505 ft 405 kts 142°
2026-04-30 09:18 36.69393 24.57593 29153 ft 400 kts 143°
2026-04-30 09:18 36.67229 24.59765 28743 ft 397 kts 144°
2026-04-30 09:18 36.65081 24.61907 28379 ft 393 kts 144°
2026-04-30 09:18 36.62954 24.64035 27990 ft 391 kts 144°
2026-04-30 09:19 36.60848 24.66153 27619 ft 388 kts 143°
2026-04-30 09:19 36.58760 24.68261 27249 ft 385 kts 143°
2026-04-30 09:19 36.56688 24.70360 26883 ft 383 kts 143°
2026-04-30 09:19 36.54630 24.72447 26516 ft 380 kts 143°
2026-04-30 09:20 36.52588 24.74520 26156 ft 378 kts 143°
2026-04-30 09:20 36.50558 24.76579 25797 ft 376 kts 143°
2026-04-30 09:20 36.48533 24.78632 25439 ft 374 kts 143°
2026-04-30 09:20 36.46522 24.80670 25087 ft 372 kts 143°
2026-04-30 09:21 36.44539 24.82678 24735 ft 371 kts 143°
2026-04-30 09:21 36.42538 24.84703 24379 ft 369 kts 143°
2026-04-30 09:21 36.40543 24.86720 24020 ft 368 kts 143°
2026-04-30 09:21 36.38562 24.88722 23653 ft 367 kts 143°
2026-04-30 09:22 36.36579 24.90724 23240 ft 366 kts 143°
2026-04-30 09:22 36.34634 24.92688 22856 ft 364 kts 143°
2026-04-30 09:22 36.32675 24.94663 22486 ft 361 kts 143°
2026-04-30 09:22 36.30732 24.96622 22129 ft 359 kts 143°
2026-04-30 09:23 36.28798 24.98570 21771 ft 356 kts 143°
2026-04-30 09:23 36.26874 25.00507 21424 ft 354 kts 143°
2026-04-30 09:23 36.24965 25.02427 21080 ft 352 kts 143°
2026-04-30 09:23 36.23069 25.04333 20737 ft 350 kts 143°
2026-04-30 09:24 36.21180 25.06231 20398 ft 348 kts 143°
2026-04-30 09:24 36.19322 25.08096 20061 ft 347 kts 143°
2026-04-30 09:24 36.17455 25.09969 19723 ft 345 kts 143°
2026-04-30 09:24 36.15592 25.11836 19385 ft 344 kts 143°
2026-04-30 09:25 36.13739 25.13694 19050 ft 342 kts 143°
2026-04-30 09:25 36.11891 25.15544 18711 ft 341 kts 143°
2026-04-30 09:25 36.10048 25.17389 18356 ft 341 kts 143°
2026-04-30 09:25 36.08206 25.19231 17977 ft 340 kts 143°
2026-04-30 09:26 36.06373 25.21064 17614 ft 338 kts 143°
2026-04-30 09:26 36.04551 25.22885 17268 ft 336 kts 143°
2026-04-30 09:26 36.02734 25.24699 16928 ft 334 kts 143°
2026-04-30 09:26 36.00930 25.26499 16591 ft 332 kts 143°
2026-04-30 09:27 35.99138 25.28287 16267 ft 330 kts 143°
2026-04-30 09:27 35.97370 25.30050 15942 ft 328 kts 143°
2026-04-30 09:27 35.95598 25.31815 15615 ft 326 kts 143°
2026-04-30 09:27 35.93831 25.33573 15284 ft 325 kts 143°
2026-04-30 09:28 35.92072 25.35323 14950 ft 324 kts 143°
2026-04-30 09:28 35.90311 25.37073 14548 ft 325 kts 143°
2026-04-30 09:28 35.88551 25.38822 14211 ft 324 kts 143°
2026-04-30 09:28 35.86794 25.40567 13869 ft 323 kts 142°
2026-04-30 09:29 35.85061 25.42287 13500 ft 322 kts 142°
2026-04-30 09:29 35.83321 25.44014 13154 ft 320 kts 142°
2026-04-30 09:29 35.81584 25.45738 12899 ft 315 kts 142°
2026-04-30 09:29 35.79890 25.47417 12515 ft 315 kts 142°
2026-04-30 09:30 35.78181 25.49110 12174 ft 314 kts 142°
2026-04-30 09:30 35.76482 25.50792 11845 ft 312 kts 142°
2026-04-30 09:30 35.74795 25.52463 11509 ft 310 kts 142°
2026-04-30 09:30 35.73117 25.54123 11196 ft 308 kts 142°
2026-04-30 09:31 35.71449 25.55772 10928 ft 305 kts 142°
2026-04-30 09:31 35.69808 25.57393 10582 ft 305 kts 142°
2026-04-30 09:31 35.68155 25.59021 10249 ft 304 kts 142°
2026-04-30 09:31 35.66517 25.60629 10070 ft 297 kts 142°
2026-04-30 09:32 35.64921 25.62195 9738 ft 297 kts 142°
2026-04-30 09:32 35.63315 25.63769 9429 ft 295 kts 142°
2026-04-30 09:32 35.61681 25.65274 9092 ft 292 kts 153°
2026-04-30 09:32 35.59735 25.65775 8777 ft 286 kts 188°
2026-04-30 09:33 35.57942 25.64865 8506 ft 278 kts 223°
2026-04-30 09:33 35.56859 25.62967 8295 ft 270 kts 245°
2026-04-30 09:33 35.56024 25.60899 7998 ft 269 kts 244°
2026-04-30 09:33 35.55150 25.58870 7696 ft 268 kts 242°
2026-04-30 09:34 35.54227 25.56883 7424 ft 267 kts 240°
2026-04-30 09:34 35.53269 25.54930 7143 ft 266 kts 239°
2026-04-30 09:34 35.52292 25.53006 6867 ft 265 kts 238°
2026-04-30 09:34 35.51302 25.51099 6578 ft 265 kts 238°
2026-04-30 09:35 35.50304 25.49203 6293 ft 264 kts 237°
2026-04-30 09:35 35.49304 25.47319 5996 ft 263 kts 237°
2026-04-30 09:35 35.48303 25.45445 5703 ft 262 kts 237°
2026-04-30 09:35 35.47308 25.43582 5427 ft 261 kts 237°
2026-04-30 09:36 35.46292 25.41742 5141 ft 260 kts 230°
2026-04-30 09:36 35.44852 25.40493 4971 ft 254 kts 198°
2026-04-30 09:36 35.43103 25.40343 4445 ft 263 kts 167°
2026-04-30 09:36 35.41384 25.41210 4073 ft 266 kts 156°
2026-04-30 09:37 35.39693 25.42011 4030 ft 254 kts 162°
2026-04-30 09:37 35.38015 25.42547 4060 ft 246 kts 169°
2026-04-30 09:37 35.36350 25.42692 4047 ft 244 kts 193°
2026-04-30 09:37 35.34928 25.41731 3973 ft 228 kts 230°
2026-04-30 09:38 35.34217 25.40097 3775 ft 211 kts 242°
2026-04-30 09:38 35.33233 25.38839 3531 ft 197 kts 222°
2026-04-30 09:38 35.32452 25.37542 3320 ft 189 kts 248°
2026-04-30 09:38 35.32263 25.35998 3094 ft 181 kts 277°
2026-04-30 09:39 35.32688 25.34569 2844 ft 180 kts 300°
2026-04-30 09:39 35.33113 25.33145 2602 ft 180 kts 278°
2026-04-30 09:39 35.33196 25.31638 2374 ft 173 kts 272°
2026-04-30 09:39 35.33237 25.30203 2202 ft 168 kts 272°
2026-04-30 09:40 35.33265 25.28764 1957 ft 161 kts 272°
2026-04-30 09:40 35.33341 25.27422 1641 ft 156 kts 277°
2026-04-30 09:40 35.33470 25.26136 1348 ft 148 kts 276°
2026-04-30 09:40 35.33552 25.24892 1052 ft 145 kts 275°
2026-04-30 09:41 35.33619 25.23661 842 ft 145 kts 274°
2026-04-30 09:41 35.33672 25.22421 678 ft 145 kts 274°
2026-04-30 09:41 35.33740 25.21183 562 ft 145 kts 277°
2026-04-30 09:41 35.33838 25.19956 328 ft 148 kts 276°
2026-04-30 09:42 35.33926 25.18700 101 ft 145 kts 276°
2026-04-30 09:42 35.34000 25.17635 90 ft 97 kts 275°
2026-04-30 09:42 35.34044 25.17031 90 ft 60 kts 275°
2026-04-30 09:42 35.34014 25.16879 86 ft 8 kts 184°
2026-04-30 09:43 35.33974 25.16918 85 ft 8 kts 114°
2026-04-30 09:43 35.33954 25.16978 89 ft 8 kts 109°
2026-04-30 09:43 35.33944 25.17040 85 ft 7 kts 96°
2026-04-30 09:43 35.33938 25.17103 85 ft 8 kts 95°
2026-04-30 09:44 35.33932 25.17185 86 ft 11 kts 95°
2026-04-30 09:44 35.33924 25.17284 87 ft 12 kts 95°
2026-04-30 09:44 35.33920 25.17388 86 ft 13 kts 92°
2026-04-30 09:44 35.33915 25.17499 86 ft 13 kts 93°
2026-04-30 09:45 35.33907 25.17610 90 ft 13 kts 95°
2026-04-30 09:45 35.33899 25.17719 88 ft 13 kts 96°
2026-04-30 09:45 35.33887 25.17861 88 ft 21 kts 96°
2026-04-30 09:45 35.33814 25.18042 94 ft 25 kts 124°
2026-04-30 09:46 35.33743 25.18153 98 ft 9 kts 142°
2026-04-30 09:46 35.33706 25.18172 98 ft 0 kts 179°